#timestamp,LO_Frequency,Hit 
1503050415.9,286047000.5,N
1503050435.7,286047000.8,N
1503050455.5,286046999.0,N
1503050475.4,286046999.0,N
1503050495.2,286046999.6,N
1503050515.0,286046999.5,N
1503050515.9,286046999.5,N
1503050535.8,286046997.2,N
1503050555.6,286046996.1,N
1503050575.4,286046993.7,N
1503050595.3,286046994.2,N
1503050615.1,286046992.4,N
1503050616.0,286046992.4,N
1503050635.8,286046993.0,N
1503050655.6,286046992.6,N
1503050675.5,286046993.0,N
1503050695.3,286046990.3,N
1503050715.1,286046992.9,N
1503050735.9,286046990.5,N
1503050755.7,286046990.3,N
1503050775.5,286046990.3,N
1503050795.4,286046990.5,N
1503050815.2,286046989.1,N
1503050835.0,286046989.1,N
1503050835.9,286046989.1,N
1503050855.8,286046989.2,N
1503050875.6,286046989.5,N
1503050895.4,286046987.3,N
1503050915.3,286046988.3,N
1503050935.1,286046985.3,P
1503050936.0,286046985.3,P
1503050955.8,286046994.8,N
1503050975.7,286046993.6,N
1503050995.5,286046993.7,N
1503051015.3,286046992.5,N
1503051035.2,286046992.7,N
1503051055.9,286046994.3,N
1503051075.7,286046990.1,N
1503051095.6,286046990.5,N
1503051115.4,286046991.9,N
1503051135.2,286046990.6,P
1503051155.1,286047000.4,N
1503051156.0,286047000.4,N
1503051175.8,286046999.9,N
1503051195.6,286047000.3,N
1503051215.5,286046998.4,N
1503051235.3,286046998.4,N
1503051255.1,286046998.4,N
1503051275.8,286046998.4,N
1503051295.7,286046999.1,N
1503051315.5,286046997.0,N
1503051335.3,286046997.0,N
1503051355.2,286046997.6,N
1503051375.9,286046997.6,N
1503051395.7,286046997.1,N
1503051415.6,286046995.6,N
1503051435.4,286046995.5,N
1503051455.2,286046996.3,N
1503051475.1,286046995.9,N
1503051476.0,286046995.9,N
1503051495.8,286046993.3,N
1503051515.6,286046994.7,N
1503051535.5,286046994.8,N
1503051555.3,286046994.5,N
1503051575.1,286046992.2,P
1503051595.9,286046995.6,N
1503051615.7,286046993.6,P
1503051635.5,286046993.7,P
1503051655.4,286046998.5,P
1503051675.2,286046999.9,N
1503051695.0,286047000.7,N
1503051695.9,286047000.7,N
1503051715.8,286047001.0,N
1503051735.6,286046998.7,N
1503051755.4,286046999.5,N
1503051775.2,286046996.8,N
1503051795.1,286046999.6,N
1503051796.0,286046999.6,N
1503051815.8,286046996.7,N
1503051835.6,286046997.5,N
1503051855.5,286046997.8,N
1503051875.3,286046996.7,N
1503051895.1,286046997.4,N
1503051915.9,286046995.0,N
1503051935.7,286046995.6,N
1503051955.5,286046996.3,N
1503051975.4,286046996.1,N
1503051995.2,286046996.3,N
1503052015.0,286046996.1,N
1503052015.9,286046996.1,N
1503052035.8,286046996.4,N
1503052055.6,286046996.4,N
1503052075.4,286046994.0,P
1503052095.3,286046997.8,N
1503052115.1,286046994.9,N
1503052135.8,286047001.0,P
1503052155.7,286046998.6,N
1503052175.5,286046999.0,N
1503052195.3,286046999.2,N
1503052215.2,286046996.5,N
1503052235.9,286046999.6,N
1503052255.7,286046996.9,N
1503052275.6,286046997.2,N
1503052295.4,286046997.7,N
1503052315.2,286046997.7,N
1503052335.1,286046995.1,P
1503052336.0,286046995.1,P
1503052355.8,286046997.5,N
1503052375.6,286046997.1,N
1503052395.5,286046994.9,P
1503052415.3,286047000.7,N
1503052435.1,286046998.5,N
1503052455.9,286046998.9,N
1503052475.7,286046997.4,N
1503052495.5,286046997.0,N
1503052515.4,286046996.9,N
1503052535.2,286046996.9,N
1503052555.0,286046995.0,P
1503052555.9,286046995.0,P
1503052575.8,286046999.1,N
1503052595.6,286046999.3,N
1503052615.4,286046998.8,N
1503052635.3,286046997.0,N
1503052655.1,286046996.5,N
1503052656.0,286046996.5,N
1503052675.8,286046996.9,N
1503052695.6,286046997.4,N
1503052715.5,286046997.2,N
1503052735.3,286046997.9,N
1503052755.1,286046996.2,N
1503052775.9,286046996.1,P
1503052795.4,286046997.1,P
1503052815.3,286046997.4,P
1503052835.1,286046995.1,P
1503052836.0,286046995.1,P
1503052855.8,286046998.9,N
1503052875.7,286046999.6,N
1503052895.5,286046999.6,N
1503052915.3,286046996.9,N
1503052935.2,286046997.3,N
1503052955.9,286046996.7,N
1503052975.7,286046996.8,N
1503052995.5,286046996.5,N
1503053015.4,286046999.5,N
1503053035.2,286046996.7,N
1503053055.0,286046996.7,N
1503053055.9,286046996.7,N
1503053075.8,286046997.5,N
1503053095.6,286046995.0,P
1503053115.5,286047001.2,N
1503053135.3,286046996.5,N
1503053155.1,286046996.5,N
1503053175.8,286046996.9,N
1503053195.7,286046997.4,N
1503053215.5,286046997.8,N
1503053235.3,286046997.8,N
1503053255.2,286046994.9,P
1503053275.0,286046999.3,N
1503053275.9,286046999.3,N
1503053295.7,286046998.8,N
1503053315.6,286046999.6,N
1503053335.4,286046999.1,N
1503053355.2,286046999.4,N
1503053375.1,286046996.9,N
1503053376.0,286046996.9,N
1503053395.8,286046996.6,N
1503053415.6,286046997.8,N
1503053435.5,286046995.0,P
1503053455.3,286046999.2,N
1503053475.1,286046996.8,N
1503053495.9,286046997.7,N
1503053515.7,286046996.6,N
1503053535.5,286046996.8,N
1503053555.4,286046998.0,N
1503053575.2,286046996.3,P
1503053595.0,286046997.5,P
1503053595.9,286046997.5,P
1503053615.8,286046997.9,P
1503053635.6,286046998.1,P
1503053655.4,286046998.4,P
1503053675.3,286046999.2,N
1503053695.1,286046997.1,P
1503053715.9,286046998.8,N
1503053735.7,286047001.0,N
1503053755.5,286046998.6,N
1503053775.3,286046999.8,N
1503053795.2,286047000.3,N
1503053815.0,286047000.6,N
1503053815.9,286047000.6,N
1503053835.7,286047001.1,N
1503053855.6,286046998.1,N
1503053875.4,286047001.0,N
1503053895.2,286046998.9,N
1503053915.1,286046999.1,N
1503053916.0,286046999.1,N
1503053935.8,286046996.6,N
1503053955.6,286046996.8,N
1503053975.5,286046997.7,N
1503053995.3,286046994.9,P
